Flag for Tunisia Weather past 2 weeks in Tunis, Tunisia

Now
48 °F

Rain. Passing clouds.


Feels Like: 45 °F
Forecast: 52 / 63 °F
Wind: 8 mph from Southwest

Location: Tunis-Carthage

Current Time: Jan 29, 2015 at 7:49:38 AM

Latest Report: Jan 29, 2015 at 7:00 AM


Visibility: 5 mi

Pressure: 29.95 "Hg

Humidity: 87%

Dew point: 45 °F

Location of TunisLocation

Historic Weather in Tunis — Graph

°F

Tunis temperature yesterday

Maximum temperature yesterday: 55 °F (at 1:30 PM)
Minimum temperature yesterday: 48 °F (at 3:30 AM)
Average temperature yesterday: 51 °F

Past Weeks' High & Low Weather Summary

 TemperatureHumidityPressure
High75 °F (Jan 16, 3:00 PM)94% (Jan 16, 1:30 AM)30.30 "Hg (Jan 16, 1:30 AM)
Low43 °F (Jan 26, 4:30 AM)31% (Jan 14, 2:30 PM)29.62 "Hg (Jan 22, 3:30 PM)
Average53 °F69%29.95 "Hg
* Reported Jan 14 6:00 AM — Jan 29 6:30 AM, Tunis, Weather by CustomWeather, © 2014

Note: Actual official high and low records may vary slightly from our data, if they occured in-between our weather recording intervals... More about our weather records

Advertising

Tunis weather history for previous 24 hours

 ConditionsComfort  
Time TempWeatherWind HumidityBarometerVisibility
6:30 AM
Jan 29
48 °FPassing clouds.5 mph87%29.95 "HgN/A
6:00 AM48 °FPassing clouds.8 mph87%29.95 "HgN/A
5:30 AM48 °FPassing clouds.8 mph87%29.92 "HgN/A
5:00 AM48 °FPassing clouds.7 mph82%29.95 "HgN/A
4:30 AM48 °FPassing clouds.7 mph82%29.95 "HgN/A
4:00 AM48 °FPassing clouds.7 mph82%29.95 "HgN/A
3:30 AM48 °FPassing clouds.8 mph82%29.95 "HgN/A
3:00 AM50 °FPassing clouds.7 mph71%29.95 "HgN/A
2:30 AM50 °FPassing clouds.8 mph76%29.95 "HgN/A
2:00 AM48 °FPassing clouds.8 mph82%29.98 "HgN/A
1:30 AM48 °FPassing clouds.8 mph76%29.98 "HgN/A
1:00 AM48 °FPassing clouds.7 mph76%29.98 "HgN/A
12:30 AM50 °FPassing clouds.10 mph71%29.98 "HgN/A
12:00 AM50 °FPassing clouds.12 mph67%29.98 "HgN/A
11:30 PM
Jan 28
50 °FPassing clouds.7 mph58%29.98 "HgN/A
11:00 PM48 °FPassing clouds.6 mph62%29.98 "HgN/A
10:30 PM48 °FPassing clouds.7 mph66%29.98 "HgN/A
10:00 PM48 °FPassing clouds.9 mph71%29.98 "HgN/A
9:30 PM50 °FPassing clouds.8 mph67%30.01 "HgN/A
9:00 PM50 °FPassing clouds.5 mph58%30.01 "HgN/A
8:30 PM50 °FPassing clouds.3 mph54%30.01 "HgN/A
8:00 PM50 °FPassing clouds.2 mph58%30.01 "HgN/A
7:30 PM50 °FPassing clouds.3 mph58%30.01 "HgN/A
7:00 PM50 °FPassing clouds.6 mph58%29.98 "HgN/A
6:30 PM50 °FPassing clouds.6 mph62%30.01 "HgN/A
6:00 PM52 °FPassing clouds.8 mph54%29.98 "HgN/A
5:30 PM52 °FScattered clouds.12 mph54%29.98 "HgN/A
5:00 PM52 °FScattered clouds.14 mph54%29.98 "HgN/A
4:30 PM54 °FScattered clouds.16 mph51%29.95 "HgN/A
4:00 PM54 °FScattered clouds.16 mph51%29.95 "HgN/A
3:30 PM55 °FScattered clouds.20 mph51%29.95 "HgN/A
3:00 PM55 °FScattered clouds.18 mph47%29.95 "HgN/A
2:30 PM55 °FScattered clouds.17 mph51%29.95 "HgN/A
2:00 PM54 °FScattered clouds.17 mph54%29.95 "HgN/A
1:30 PM55 °FScattered clouds.20 mph51%29.95 "HgN/A
1:00 PM54 °FScattered clouds.17 mph58%29.95 "HgN/A
12:30 PM52 °FScattered clouds.9 mph82%29.95 "HgN/A
12:00 PM52 °FScattered clouds.8 mph82%29.95 "HgN/A
11:30 AM50 °FScattered clouds.8 mph88%29.95 "HgN/A
11:00 AM48 °FScattered clouds.5 mph94%29.95 "HgN/A
10:30 AM48 °FScattered clouds.5 mph94%29.95 "HgN/A
10:00 AM48 °FScattered clouds.6 mph94%29.95 "HgN/A
9:30 AM48 °FLight rain. Scattered clouds.7 mph94%29.95 "Hg5 mi
9:00 AM48 °FLight rain. Scattered clouds.8 mph94%29.92 "Hg5 mi
8:30 AM48 °FLight rain. Scattered clouds.14 mph94%29.92 "Hg5 mi
8:00 AM48 °FLight rain. Scattered clouds.13 mph87%29.92 "Hg5 mi
7:30 AM50 °FRain. Scattered clouds.12 mph76%29.92 "HgN/A
7:00 AM50 °FPassing clouds.12 mph76%29.89 "Hg5 mi
Weather by CustomWeather, © 2014

See weather overviewHow to use our weather pages